706  
ASUS44 KFWD 291615  
RWRTX  
NORTH TEXAS HOURLY WEATHER ROUNDUP  
NATIONAL WEATHER SERVICE FORT WORTH TX  
1100 AM CDT WED MAR 29 2017  
 
NOTE: "FAIR" INDICATES FEW OR NO CLOUDS BELOW 12,000 FEET WITH NO  
SIGNIFICANT WEATHER AND/OR S TO VISIBILITY
.  
 
TXZ118-119-291700-  
DALLAS/FORT WORTH METROPLEX  
 
CITY SKY/WX TMP DP RH WIND PRES REMARKS
 
DFW AIRPORT MOSUNNY 70 58 65 S22 29.71R  
DALLAS LOVE MOSUNNY 69 57 65 SW17G23 29.73R  
FTW MEACHAM SUNNY 69 55 60 S14G22 29.72R  
DAL-EXECUTIVE SUNNY 69 60 73 S12G22 29.73R  
FTW-ALLIANCE MOSUNNY 69 57 65 SW12G22 29.71R  
FTW-NAS-JRB MOSUNNY 70 55 59 SW17G26 29.72S  
FTW-SPINKS SUNNY 70 57 64 SW12 29.75S  
ARLINGTON SUNNY 69 56 62 S12G21 29.73R  
GRAND PRAIRIE SUNNY 68 55 64 S14G23 29.75R  
ADDISON SUNNY 68 57 68 S13G24 29.73R  
MESQUITE MOSUNNY 66 61 82 S16 29.75R  
LANCASTER SUNNY 67 60 78 SW13 29.76R  

 
 
TXZ091>094-102>105-117-120-121-131>134-291700-  
NORTH CENTRAL TEXAS  
 
CITY SKY/WX TMP DP RH WIND PRES REMARKS
 
SHRMAN/DENISON PTSUNNY 66 59 78 S18G25 29.72S  
GAINESVILLE PTSUNNY 65 57 74 S20G25 29.71F  
BOWIE MOSUNNY 67 57 69 S16G23 29.68S  
BRIDGEPORT SUNNY 67 53 60 SW17 29.71S  
DECATUR SUNNY 67 54 62 S13 29.70R  
DENTON SUNNY 68 58 70 S17 29.71S  
MCKINNEY MOSUNNY 67 60 78 S16G24 29.73R  
BONHAM CLOUDY 64 59 82 S18G28 29.73R  
GREENVILLE CLOUDY 66 61 82 S15G21 29.76R  
ROCKWALL CLOUDY 68 61 79 S18G25 29.75R  
TERRELL MOSUNNY 67 60 78 S13G22 29.76R  
WAXAHACHIE MOSUNNY 68 60 74 S18 29.76R  
CLEBURNE SUNNY 68 57 68 SW16 29.77R  
GRANBURY SUNNY 69 55 60 SW13 29.76R  

 
 
TXZ083>090-098>101-113>116-127>130-139>142-154-155-291700-  
WESTERN NORTH TEXAS  
 
CITY SKY/WX TMP DP RH WIND PRES REMARKS
 
WICHITA FALLS PTSUNNY 64 56 75 S18 29.67R  
WF-KICKAPOO PTSUNNY 64 56 73 S15G21 29.69R  
VERNON CLOUDY 56 51 81 N6 29.71R  
ABILENE SUNNY 62 49 62 W17 29.75R  
ABILENE-DYESS SUNNY 63 49 62 NW17 29.74R  
GRAHAM SUNNY 65 49 55 SW15G25 29.69R  
BRECKENRIDGE SUNNY 67 47 50 SW16G24 29.73R  
CISCO SUNNY 64 46 52 SW18G26 29.75R  
RANGER SUNNY 64 48 55 SW14G21 29.75R  
MINERAL WELLS SUNNY 69 51 52 S14G23 29.71S  
STEPHENVILLE SUNNY 66 50 55 SW9G17 29.79R  
COMANCHE SUNNY 67 45 44 SW13G20 29.78R  
BROWNWOOD SUNNY 66 46 48 SW12 29.79R  
COLEMAN SUNNY 64 44 47 W15G23 29.79R  

 
 
TXZ143>147-156>162-174-175-291700-  
CENTRAL TEXAS  
 
CITY SKY/WX TMP DP RH WIND PRES REMARKS
 
WACO SUNNY 69 62 78 S16 29.78R  
WACO-MCGREGOR SUNNY 70 62 76 S15 29.79R  
HILLSBORO SUNNY 68 61 76 S16 29.77R  
CORSICANA SUNNY 71 62 73 S16 29.78R  
MEXIA PTSUNNY 68 62 80 S14G21 29.78R  
HEARNE PTSUNNY 70 66 86 SE8 29.81R  
CAMERON PTSUNNY 72 63 74 SW7 29.80R  
TEMPLE SUNNY 69 63 81 S13 29.80R  
KILLEEN SUNNY 67 58 72 S7 29.79R  
KILLEEN-SKYLRK SUNNY 68 61 78 S7 29.81R  
FORT HOOD SUNNY 68 58 70 S8 29.77R  
GATESVILLE SUNNY 70 54 56 SW10 29.81R  
HAMILTON SUNNY 70 50 48 W10 29.79S  
LAMPASAS SUNNY 71 58 64 S3 29.79S  

 
 
TXZ095>097-106>112-122>126-135>138-148>153-164>167-291700-  
EAST TEXAS  
 
CITY SKY/WX TMP DP RH WIND PRES REMARKS
 
PARIS CLOUDY 66 59 77 S17G25 29.75R  
SULPHUR SPRNGS CLOUDY 66 60 80 S15G21 29.77R  
MOUNT PLEASANT CLOUDY 66 62 86 SE7 29.80S  
GILMER CLOUDY 64 60 86 S7 29.80S  
MINEOLA PTSUNNY 64 61 88 S10 29.77S  
TYLER CLOUDY 65 62 90 S9 29.79S  
LONGVIEW CLOUDY 65 62 90 SE15G24 29.75S  
MARSHALL CLOUDY 65 61 86 SE8 29.86R  
ATHENS CLOUDY 64 63 94 S9 29.77R  
PALESTINE CLOUDY 65 64 93 S5 29.80S  
JACKSONVILLE CLOUDY 65 62 90 SW8G17 29.83R  
HENDERSON LGT RAIN 64 60 88 SE13 29.79F  
NACOGDOCHES CLOUDY 64 61 88 SE18G31 29.75F  
LUFKIN LGT RAIN 65 63 93 S9 29.90S  

 
 
SUPPLEMENTAL OBSERVATIONS (CENTRAL)  
 
CITY SKY/WX TMP DP RH WIND PRES REMARKS
 
DENISON DAM N/A 66 57 72 S9 N/A  
CADDO GRASSLND N/A 66 59 77 S15 N/A  
PAT MAYSE LAKE N/A 64 61 88 SE18 N/A  
GREENVILLE N/A 66 59 77 S12 N/A  
CEDAR HILL N/A 72 59 64 SW8G18 N/A  
ATHENS N/A 68 61 77 S10 N/A  
LAKE LIMESTONE N/A 72 64 78 S10 N/A  
MCGREGOR N/A 70 66 88 S13 N/A  
TEMPLE N/A 70 63 78 S8 N/A  

 
 
SUPPLEMENTAL OBSERVATIONS (WEST)  
 
CITY SKY/WX TMP DP RH WIND PRES REMARKS
 
MILLERS CREEK N/A 61 50 67 SW12 N/A  
POSSUM KINGDOM N/A 66 48 52 SW15G22 N/A  
LBJ GRASSLAND N/A 70 55 60 S10 N/A  
GRANBURY N/A 70 55 60 SW12 N/A  
COMANCHE N/A 68 45 42 SW14 N/A  
HAMBY N/A 63 50 63 W14 N/A  
IVIE RESERVOIR N/A 66 43 42 W14G22 N/A  
COLORADO BEND N/A 70 50 49 W7 N/A  

 
 
SUPPLEMENTAL OBSERVATIONS (EAST)  
 
CITY SKY/WX TMP DP RH WIND PRES REMARKS
 
CLARKSVILLE N/A 66 61 82 S16G24 N/A  
TEXARKANA N/A 66 61 82 SE5 N/A  
LINDEN N/A 66 63 88 SW2G10 N/A  
CADDO LAKE N/A 64 59 82 SE6 N/A  
GILMER N/A 66 61 82 S7 N/A  
HENDERSON N/A 66 61 82 S10G26 N/A  
LUFKIN N/A 64 59 82 MISG N/A  
N SABINE NF N/A 73 68 83 MISG N/A  
S SABINE NF N/A 75 66 73 W3 N/A  

 
 
SUPPLEMENTAL OBSERVATIONS ARE A COLLECTION OF AUTOMATED INSTRUMENTS  
THAT ARE MAINTAINED BY A VARIETY OF FEDERAL AND STATE AGENCIES.  
CERTAIN ELEMENTS...SUCH AS HUMIDITY VALUES AND SUSTAINED WIND  
SPEEDS...MAY BE APPROXIMATED.  
 
 
 
CLICK HERE TO GO TO PREVIOUS BULLETINS.

The Nexlab TX Page Main Text Page